Home > Weather > Horsens > Past weeks

Flag for Denmark Past Weather in Horsens, Denmark — Yesterday and Last 2 Weeks

Now
64 °F

Partly sunny.


Feels Like: 64 °F
Forecast: 53 / 63 °F
Wind: 17 mph from Southwest

Location: Billund Lufthavn

Current Time: Jul 1, 2016 at 3:41:37 PM

Latest Report: Jul 1, 2016 at 3:20 PM


Visibility: N/A

Pressure: 29.77 "Hg

Humidity: 73%

Dew Point: 55 °F

Location of HorsensLocation

Past Weather in Horsens — Graph

°F

Horsens Temperature Yesterday

Maximum temperature yesterday: 66 °F (at 4:20 PM)
Minimum temperature yesterday: 54 °F (at 2:20 AM)
Average temperature yesterday: 59 °F

High & Low Weather Summary for the Past Weeks

 TemperatureHumidityPressure
High77 °F (Jun 24, 2:50 PM)100% (Jun 17, 1:20 AM)30.21 "Hg (Jun 17, 1:20 AM)
Low43 °F (Jun 28, 4:50 AM)50% (Jun 17, 2:20 PM)29.59 "Hg (Jun 16, 2:20 PM)
Average60 °F83%29.92 "Hg
* Reported Jun 16 2:20 PM — Jul 1 2:20 PM, Horsens, Weather by CustomWeather, © 2016

Note: Actual official high and low records may vary slightly from our data, if they occured in-between our weather recording intervals... More about our weather records

Advertising

Horsens Weather History for the Previous 24 Hours

Scroll right to see more
 ConditionsComfort  
Time TempWeatherWind HumidityBarometerVisibility
2:20 PM
Fri, Jul 1
64 °FPartly sunny.18 mph73%29.77 "HgN/A
1:50 PM63 °FPartly sunny.21 mph83%29.74 "HgN/A
1:20 PM63 °FBroken clouds.15 mph83%29.74 "HgN/A
12:50 PM61 °FPartly sunny.13 mph94%29.74 "HgN/A
12:20 PM61 °FSprinkles. Broken clouds.16 mph88%29.74 "Hg5 mi
11:50 AM61 °FPartly sunny.17 mph88%29.74 "HgN/A
11:20 AM61 °FPartly sunny.13 mph94%29.74 "HgN/A
10:50 AM59 °FSprinkles. Broken clouds.10 mph94%29.74 "Hg4 mi
10:20 AM59 °FLight rain. Partly sunny.9 mph94%29.71 "Hg3 mi
9:50 AM59 °FPartly sunny.12 mph94%29.74 "HgN/A
9:20 AM59 °FSprinkles. Broken clouds.10 mph94%29.74 "Hg4 mi
8:50 AM59 °FLight rain. Partly sunny.9 mph88%29.74 "HgN/A
8:20 AM59 °FPartly sunny.8 mph88%29.74 "HgN/A
7:50 AM59 °FSprinkles. Broken clouds.9 mph88%29.74 "HgN/A
7:20 AM57 °FPartly sunny.7 mph94%29.74 "HgN/A
6:50 AM55 °FBroken clouds.6 mph100%29.77 "HgN/A
6:20 AM55 °FScattered clouds.5 mph100%29.77 "Hg4 mi
5:50 AM54 °FPartly sunny.3 mph100%29.77 "Hg4 mi
5:20 AM54 °FFog.3 mph100%29.77 "Hg3 mi
4:50 AM54 °FFog.2 mph94%29.77 "Hg0 mi
4:20 AM54 °FFog.1 mph94%29.77 "Hg0 mi
3:50 AM54 °FOvercast.2 mph100%29.77 "Hg4 mi
3:20 AM55 °FPartly cloudy.3 mph94%29.77 "Hg3 mi
2:50 AM55 °FPassing clouds.2 mph94%29.80 "HgN/A
2:20 AM55 °FPassing clouds.1 mph94%29.80 "HgN/A
1:50 AM55 °FSprinkles. Overcast.3 mph94%29.80 "HgN/A
1:20 AM55 °FSprinkles. Overcast.5 mph94%29.80 "HgN/A
12:50 AM55 °FOvercast.5 mph94%29.83 "HgN/A
12:20 AM55 °FDrizzle. Overcast.3 mph94%29.83 "HgN/A
11:50 PM
Thu, Jun 30
57 °FOvercast.2 mph88%29.83 "HgN/A
11:20 PM57 °FSprinkles. Overcast.2 mph88%29.83 "HgN/A
10:50 PM57 °FSprinkles. Overcast.3 mph88%29.83 "HgN/A
10:20 PM57 °FSprinkles. Overcast.5 mph88%29.83 "HgN/A
9:50 PM59 °FDrizzle. Overcast.6 mph77%29.83 "HgN/A
9:20 PM61 °FPartly sunny.7 mph68%29.83 "HgN/A
8:50 PM63 °FBroken clouds.9 mph64%29.83 "HgN/A
8:20 PM63 °FPassing clouds.9 mph64%29.83 "HgN/A
7:50 PM63 °FPassing clouds.9 mph64%29.83 "HgN/A
7:20 PM64 °FPassing clouds.10 mph60%29.83 "HgN/A
6:50 PM64 °FPassing clouds.9 mph60%29.80 "HgN/A
6:20 PM63 °FScattered clouds.12 mph68%29.80 "HgN/A
5:50 PM66 °FPartly sunny.10 mph64%29.80 "HgN/A
5:20 PM64 °FPartly sunny.10 mph60%29.80 "HgN/A
4:50 PM64 °FScattered clouds.12 mph60%29.80 "HgN/A
4:20 PM66 °FPartly sunny.10 mph56%29.80 "HgN/A
3:50 PM64 °FScattered clouds.12 mph56%29.80 "HgN/A
3:20 PM64 °FScattered clouds.13 mph64%29.80 "HgN/A
Weather by CustomWeather, © 2016

See weather overviewHow to use our weather pages